| time (UTC) | temp F | wind direction | speed MPH | gust MPH | rain 1hr in | rain 24hr in | rain mn in | humidity % | barometer mb |
| 20260903123550 | 85 | 360 | 4.0 | 9.0 | 0.00 | 0.00 | 0.00 | 57 | 974.9 |
| 20260903123050 | 85 | 360 | 4.0 | 9.0 | 0.00 | 0.00 | 0.00 | 56 | 975.0 |
| 20260903122552 | 86 | 360 | 3.0 | 6.0 | 0.00 | 0.00 | 0.00 | 56 | 974.9 |
| 20260903122052 | 86 | 360 | 2.0 | 9.0 | 0.00 | 0.00 | 0.00 | 56 | 974.8 |
| 20260903121550 | 86 | 360 | 5.0 | 9.0 | 0.00 | 0.00 | 0.00 | 55 | 974.6 |
| 20260903121051 | 86 | 360 | 4.0 | 9.0 | 0.00 | 0.00 | 0.00 | 55 | 974.7 |
| 20260903120552 | 86 | 360 | 4.0 | 8.0 | 0.00 | 0.00 | 0.00 | 55 | 974.6 |
| 20260903120053 | 86 | 360 | 3.0 | 10.0 | 0.00 | 0.00 | 0.00 | 55 | 974.5 |
| 20260903115550 | 86 | 360 | 5.0 | 11.0 | 0.00 | 0.00 | 0.00 | 54 | 974.5 |
| 20260903115051 | 86 | 360 | 6.0 | 11.0 | 0.00 | 0.00 | 0.00 | 54 | 974.5 |
| 20260903114551 | 86 | 360 | 6.0 | 12.0 | 0.00 | 0.00 | 0.00 | 54 | 974.5 |
| 20260903114050 | 86 | 360 | 6.0 | 12.0 | 0.00 | 0.00 | 0.00 | 54 | 974.5 |
| 20260903113551 | 87 | 360 | 7.0 | 10.0 | 0.00 | 0.00 | 0.00 | 53 | 974.5 |
| 20260903113051 | 87 | 360 | 4.0 | 9.0 | 0.00 | 0.00 | 0.00 | 53 | 974.6 |
| 20260903112551 | 87 | 360 | 4.0 | 9.0 | 0.00 | 0.00 | 0.00 | 53 | 974.5 |
| 20260903112051 | 87 | 360 | 4.0 | 9.0 | 0.00 | 0.00 | 0.00 | 53 | 974.6 |
| 20260903111551 | 87 | 360 | 5.0 | 9.0 | 0.00 | 0.00 | 0.00 | 53 | 974.6 |
| 20260903111055 | 87 | 360 | 2.0 | 5.0 | 0.00 | 0.00 | 0.00 | 52 | 974.5 |
| 20260903110551 | 87 | 360 | 1.0 | 6.0 | 0.00 | 0.00 | 0.00 | 52 | 974.5 |
| 20260903110055 | 87 | 360 | 1.0 | 8.0 | 0.00 | 0.00 | 0.00 | 52 | 974.4 |
| 20260903105551 | 87 | 360 | 3.0 | 13.0 | 0.00 | 0.00 | 0.00 | 52 | 974.6 |
| 20260903105051 | 87 | 360 | 6.0 | 13.0 | 0.00 | 0.00 | 0.00 | 51 | 974.4 |
| 20260903104556 | 87 | 360 | 2.0 | 6.0 | 0.00 | 0.00 | 0.00 | 52 | 974.5 |
| 20260903104050 | 87 | 360 | 1.0 | 9.0 | 0.00 | 0.00 | 0.00 | 52 | 974.5 |
| 20260903103550 | 87 | 360 | 3.0 | 10.0 | 0.00 | 0.00 | 0.00 | 52 | 974.5 |
| 20260903103054 | 88 | 360 | 4.0 | 10.0 | 0.00 | 0.00 | 0.00 | 51 | 974.4 |
| 20260903102552 | 88 | 360 | 5.0 | 9.0 | 0.00 | 0.00 | 0.00 | 51 | 974.5 |
| 20260903102051 | 88 | 360 | 3.0 | 8.0 | 0.00 | 0.00 | 0.00 | 50 | 974.4 |
| 20260903101601 | 88 | 360 | 2.0 | 6.0 | 0.00 | 0.00 | 0.00 | 50 | 974.4 |
| 20260903101051 | 88 | 360 | 1.0 | 6.0 | 0.00 | 0.00 | 0.00 | 50 | 974.5 |
| 20260903100551 | 88 | 360 | 4.0 | 10.0 | 0.00 | 0.00 | 0.00 | 49 | 974.6 |
| 20260903100051 | 89 | 360 | 3.0 | 10.0 | 0.00 | 0.00 | 0.00 | 49 | 974.7 |
| 20260903095551 | 89 | 360 | 1.0 | 8.0 | 0.00 | 0.00 | 0.00 | 49 | 974.8 |
| 20260903095050 | 89 | 360 | 1.0 | 10.0 | 0.00 | 0.00 | 0.00 | 49 | 974.7 |
| 20260903094551 | 89 | 360 | 2.0 | 13.0 | 0.00 | 0.00 | 0.00 | 48 | 974.7 |
| 20260903094051 | 89 | 17 | 3.0 | 13.0 | 0.00 | 0.00 | 0.00 | 48 | 974.8 |
| 20260903093553 | 89 | 360 | 3.0 | 9.0 | 0.00 | 0.00 | 0.00 | 48 | 974.6 |
| 20260903093106 | 89 | 360 | 4.0 | 10.0 | 0.00 | 0.00 | 0.00 | 47 | 974.6 |
| 20260903092551 | 90 | 360 | 6.0 | 12.0 | 0.00 | 0.00 | 0.00 | 47 | 974.6 |
| 20260903092051 | 90 | 360 | 4.0 | 15.0 | 0.00 | 0.00 | 0.00 | 46 | 974.6 |
| 20260903091551 | 90 | 360 | 8.0 | 15.0 | 0.00 | 0.00 | 0.00 | 46 | 974.6 |
| 20260903091050 | 91 | 360 | 7.0 | 18.0 | 0.00 | 0.00 | 0.00 | 45 | 974.5 |
| 20260903090551 | 91 | 360 | 11.0 | 18.0 | 0.00 | 0.00 | 0.00 | 44 | 974.5 |
| 20260903090055 | 91 | 360 | 6.0 | 17.0 | 0.00 | 0.00 | 0.00 | 44 | 974.4 |
| 20260903085551 | 91 | 360 | 4.0 | 16.0 | 0.00 | 0.00 | 0.00 | 42 | 974.4 |
| 20260903085051 | 91 | 360 | 6.0 | 12.0 | 0.00 | 0.00 | 0.00 | 41 | 974.5 |
| 20260903084550 | 91 | 360 | 4.0 | 11.0 | 0.00 | 0.00 | 0.00 | 38 | 974.4 |
| 20260903084051 | 91 | 360 | 6.0 | 11.0 | 0.00 | 0.00 | 0.00 | 37 | 974.5 |
| 20260903083550 | 91 | 360 | 5.0 | 11.0 | 0.00 | 0.00 | 0.00 | 36 | 974.5 |
| 20260903083050 | 91 | 360 | 4.0 | 11.0 | 0.00 | 0.00 | 0.00 | 34 | 974.5 |
| 20260903082550 | 92 | 360 | 6.0 | 12.0 | 0.00 | 0.00 | 0.00 | 33 | 974.5 |
| 20260903082052 | 92 | 360 | 4.0 | 13.0 | 0.00 | 0.00 | 0.00 | 31 | 974.5 |
| 20260903081557 | 92 | 360 | 7.0 | 13.0 | 0.00 | 0.00 | 0.00 | 31 | 974.5 |
| 20260903081055 | 92 | 360 | 8.0 | 13.0 | 0.00 | 0.00 | 0.00 | 30 | 974.4 |
| 20260903080550 | 93 | 360 | 5.0 | 14.0 | 0.00 | 0.00 | 0.00 | 29 | 974.4 |
| 20260903080051 | 93 | 360 | 8.0 | 14.0 | 0.00 | 0.00 | 0.00 | 28 | 974.4 |
| 20260903075555 | 93 | 360 | 7.0 | 14.0 | 0.00 | 0.00 | 0.00 | 28 | 974.4 |
| 20260903075051 | 93 | 360 | 4.0 | 8.0 | 0.00 | 0.00 | 0.00 | 25 | 974.4 |
| 20260903074552 | 92 | 360 | 3.0 | 9.0 | 0.00 | 0.00 | 0.00 | 25 | 974.4 |
| 20260903074050 | 92 | 360 | 3.0 | 9.0 | 0.00 | 0.00 | 0.00 | 25 | 974.4 |
| 20260903073551 | 91 | 360 | 2.0 | 8.0 | 0.00 | 0.00 | 0.00 | 26 | 974.4 |
| 20260903073051 | 91 | 360 | 0.0 | 4.0 | 0.00 | 0.00 | 0.00 | 26 | 974.3 |
| 20260903072550 | 91 | 360 | 0.0 | 5.0 | 0.00 | 0.00 | 0.00 | 27 | 974.2 |
| 20260903072051 | 91 | 360 | 2.0 | 5.0 | 0.00 | 0.00 | 0.00 | 27 | 974.3 |
| 20260903071551 | 92 | 360 | 2.0 | 4.0 | 0.00 | 0.00 | 0.00 | 26 | 974.3 |
| 20260903071051 | 92 | 360 | 1.0 | 4.0 | 0.00 | 0.00 | 0.00 | 26 | 974.3 |
| 20260903070550 | 93 | 360 | 2.0 | 4.0 | 0.00 | 0.00 | 0.00 | 26 | 974.2 |
| 20260903070055 | 93 | 360 | 2.0 | 4.0 | 0.00 | 0.00 | 0.00 | 25 | 974.2 |
| 20260903065551 | 93 | 360 | 1.0 | 6.0 | 0.00 | 0.00 | 0.00 | 25 | 974.2 |
| 20260903065050 | 94 | 360 | 1.0 | 6.0 | 0.00 | 0.00 | 0.00 | 22 | 974.1 |
| 20260903064551 | 94 | 360 | 3.0 | 6.0 | 0.00 | 0.00 | 0.00 | 22 | 974.2 |
| 20260903064051 | 94 | 360 | 1.0 | 3.0 | 0.00 | 0.00 | 0.00 | 22 | 974.0 |
| 20260903063550 | 94 | 360 | 1.0 | 5.0 | 0.00 | 0.00 | 0.00 | 22 | 974.0 |
| 20260903063113 | 94 | 360 | 1.0 | 8.0 | 0.00 | 0.00 | 0.00 | 22 | 974.0 |
| 20260903062551 | 94 | 360 | 1.0 | 4.0 | 0.00 | 0.00 | 0.00 | 22 | 974.1 |
| 20260903062051 | 94 | 167 | 1.0 | 3.0 | 0.00 | 0.00 | 0.00 | 23 | 974.0 |
| 20260903061551 | 94 | 360 | 1.0 | 3.0 | 0.00 | 0.00 | 0.00 | 22 | 974.1 |
| 20260903061050 | 94 | 360 | 1.0 | 6.0 | 0.00 | 0.00 | 0.00 | 22 | 974.2 |
| 20260903060550 | 94 | 360 | 1.0 | 6.0 | 0.00 | 0.00 | 0.00 | 22 | 974.0 |
| 20260903060051 | 94 | 360 | 1.0 | 4.0 | 0.00 | 0.00 | 0.00 | 22 | 974.1 |
| 20260903055550 | 94 | 360 | 2.0 | 5.0 | 0.00 | 0.00 | 0.00 | 22 | 974.1 |
| 20260903055050 | 94 | 360 | 2.0 | 5.0 | 0.00 | 0.00 | 0.00 | 21 | 974.0 |
| 20260903054551 | 94 | 360 | 1.0 | 8.0 | 0.00 | 0.00 | 0.00 | 22 | 974.0 |
| 20260903054051 | 94 | 360 | 2.0 | 8.0 | 0.00 | 0.00 | 0.00 | 22 | 974.1 |
| 20260903053553 | 93 | 360 | 2.0 | 6.0 | 0.00 | 0.00 | 0.00 | 23 | 974.0 |
| 20260903053050 | 93 | 360 | 1.0 | 6.0 | 0.00 | 0.00 | 0.00 | 24 | 974.1 |
| 20260903052550 | 94 | 360 | 1.0 | 3.0 | 0.00 | 0.00 | 0.00 | 26 | 974.0 |
| 20260903052052 | 94 | 360 | 1.0 | 3.0 | 0.00 | 0.00 | 0.00 | 25 | 974.0 |
| 20260903051551 | 95 | 360 | 0.0 | 5.0 | 0.00 | 0.00 | 0.00 | 27 | 974.0 |
| 20260903051051 | 95 | 360 | 1.0 | 5.0 | 0.00 | 0.00 | 0.00 | 26 | 974.1 |
| 20260903050550 | 95 | 360 | 1.0 | 6.0 | 0.00 | 0.00 | 0.00 | 24 | 974.0 |
| 20260903050113 | 96 | 360 | 3.0 | 6.0 | 0.00 | 0.00 | 0.00 | 22 | 974.0 |
| 20260903045552 | 96 | 360 | 2.0 | 6.0 | 0.00 | 0.00 | 0.00 | 22 | 974.0 |
| 20260903045051 | 96 | 360 | 2.0 | 10.0 | 0.00 | 0.00 | 0.00 | 24 | 974.0 |
| 20260903044550 | 96 | 360 | 3.0 | 10.0 | 0.00 | 0.00 | 0.00 | 24 | 974.0 |
| 20260903044051 | 96 | 360 | 5.0 | 10.0 | 0.00 | 0.00 | 0.00 | 24 | 974.0 |
| 20260903043551 | 96 | 360 | 2.0 | 11.0 | 0.00 | 0.00 | 0.00 | 23 | 974.0 |
| 20260903043050 | 96 | 360 | 4.0 | 11.0 | 0.00 | 0.00 | 0.00 | 24 | 973.9 |
| 20260903042550 | 96 | 360 | 4.0 | 12.0 | 0.00 | 0.00 | 0.00 | 25 | 973.8 |
| 20260903042051 | 96 | 360 | 5.0 | 14.0 | 0.00 | 0.00 | 0.00 | 28 | 973.8 |
| 20260903041554 | 96 | 360 | 10.0 | 14.0 | 0.00 | 0.00 | 0.00 | 30 | 973.8 |
| 20260903041051 | 96 | 360 | 6.0 | 12.0 | 0.00 | 0.00 | 0.00 | 35 | 973.8 |
| 20260903040551 | 96 | 360 | 4.0 | 11.0 | 0.00 | 0.00 | 0.00 | 36 | 973.7 |
| 20260903040057 | 96 | 360 | 3.0 | 11.0 | 0.00 | 0.00 | 0.00 | 37 | 973.6 |
| 20260903035550 | 96 | 360 | 6.0 | 11.0 | 0.00 | 0.00 | 0.00 | 36 | 973.7 |
| 20260903035050 | 97 | 360 | 6.0 | 11.0 | 0.00 | 0.00 | 0.00 | 36 | 973.6 |
| 20260903034550 | 97 | 360 | 5.0 | 12.0 | 0.00 | 0.00 | 0.00 | 36 | 973.6 |
| 20260903034052 | 97 | 360 | 8.0 | 12.0 | 0.00 | 0.00 | 0.00 | 36 | 973.5 |
| 20260903033550 | 97 | 360 | 7.0 | 11.0 | 0.00 | 0.00 | 0.00 | 36 | 973.5 |
| 20260903033051 | 97 | 360 | 6.0 | 11.0 | 0.00 | 0.00 | 0.00 | 36 | 973.5 |
| 20260903032551 | 97 | 15 | 5.0 | 10.0 | 0.00 | 0.00 | 0.00 | 36 | 973.5 |
| 20260903032051 | 97 | 360 | 6.0 | 10.0 | 0.00 | 0.00 | 0.00 | 36 | 973.4 |
| 20260903031550 | 97 | 360 | 4.0 | 9.0 | 0.00 | 0.00 | 0.00 | 36 | 973.3 |
| 20260903031050 | 97 | 360 | 6.0 | 10.0 | 0.00 | 0.00 | 0.00 | 36 | 973.3 |
| 20260903030551 | 97 | 360 | 4.0 | 10.0 | 0.00 | 0.00 | 0.00 | 35 | 973.3 |
| 20260903030051 | 97 | 360 | 7.0 | 12.0 | 0.00 | 0.00 | 0.00 | 35 | 973.2 |
| 20260903025551 | 97 | 360 | 6.0 | 11.0 | 0.00 | 0.00 | 0.00 | 35 | 973.1 |
| 20260903025054 | 97 | 360 | 7.0 | 13.0 | 0.00 | 0.00 | 0.00 | 34 | 973.0 |
| 20260903024551 | 98 | 360 | 7.0 | 13.0 | 0.00 | 0.00 | 0.00 | 34 | 973.0 |
| 20260903024052 | 98 | 360 | 7.0 | 13.0 | 0.00 | 0.00 | 0.00 | 34 | 973.1 |
| 20260903023552 | 98 | 360 | 7.0 | 12.0 | 0.00 | 0.00 | 0.00 | 33 | 973.1 |
| 20260903023051 | 98 | 360 | 7.0 | 12.0 | 0.00 | 0.00 | 0.00 | 33 | 973.0 |
| 20260903022551 | 98 | 360 | 7.0 | 13.0 | 0.00 | 0.00 | 0.00 | 33 | 973.0 |
| 20260903022050 | 98 | 360 | 8.0 | 14.0 | 0.00 | 0.00 | 0.00 | 33 | 973.0 |
| 20260903021551 | 98 | 360 | 7.0 | 14.0 | 0.00 | 0.00 | 0.00 | 33 | 972.9 |
| 20260903021050 | 98 | 15 | 8.0 | 16.0 | 0.00 | 0.00 | 0.00 | 34 | 972.9 |
| 20260903020550 | 98 | 360 | 11.0 | 16.0 | 0.00 | 0.00 | 0.00 | 34 | 972.8 |
| 20260903020052 | 98 | 360 | 5.0 | 10.0 | 0.00 | 0.00 | 0.00 | 34 | 972.8 |
| 20260903015551 | 98 | 360 | 5.0 | 10.0 | 0.00 | 0.00 | 0.00 | 31 | 972.7 |
| 20260903015050 | 99 | 360 | 7.0 | 12.0 | 0.00 | 0.00 | 0.00 | 31 | 972.6 |
| 20260903014552 | 99 | 360 | 9.0 | 12.0 | 0.00 | 0.00 | 0.00 | 31 | 972.7 |
| 20260903014052 | 99 | 360 | 8.0 | 12.0 | 0.00 | 0.00 | 0.00 | 31 | 972.6 |
| 20260903013551 | 99 | 360 | 10.0 | 13.0 | 0.00 | 0.00 | 0.00 | 31 | 972.5 |
| 20260903013051 | 99 | 360 | 9.0 | 13.0 | 0.00 | 0.00 | 0.00 | 31 | 972.5 |
| 20260903012550 | 99 | 113 | 8.0 | 12.0 | 0.00 | 0.00 | 0.00 | 31 | 972.5 |
| 20260903012050 | 100 | 132 | 8.0 | 14.0 | 0.00 | 0.00 | 0.00 | 31 | 972.5 |
| 20260903011601 | 100 | 145 | 8.0 | 14.0 | 0.00 | 0.00 | 0.00 | 31 | 972.5 |
| 20260903011050 | 100 | 173 | 6.0 | 10.0 | 0.00 | 0.00 | 0.00 | 31 | 972.4 |
| 20260903010554 | 100 | 161 | 6.0 | 15.0 | 0.00 | 0.00 | 0.00 | 29 | 972.5 |
| 20260903010051 | 100 | 153 | 9.0 | 15.0 | 0.00 | 0.00 | 0.00 | 29 | 972.4 |
| 20260903005551 | 100 | 121 | 10.0 | 14.0 | 0.00 | 0.00 | 0.00 | 30 | 972.5 |
| 20260903005051 | 100 | 163 | 9.0 | 16.0 | 0.00 | 0.00 | 0.00 | 30 | 972.5 |
| 20260903004551 | 100 | 150 | 11.0 | 16.0 | 0.00 | 0.00 | 0.00 | 30 | 972.4 |
| 20260903004050 | 100 | 153 | 11.0 | 15.0 | 0.00 | 0.00 | 0.00 | 29 | 972.4 |
| 20260903003551 | 101 | 144 | 10.0 | 15.0 | 0.00 | 0.00 | 0.00 | 28 | 972.6 |
| 20260903003051 | 101 | 137 | 9.0 | 17.0 | 0.00 | 0.00 | 0.00 | 29 | 972.6 |
| 20260903002550 | 101 | 128 | 11.0 | 17.0 | 0.00 | 0.00 | 0.00 | 28 | 972.5 |
| 20260903002053 | 101 | 159 | 9.0 | 15.0 | 0.00 | 0.00 | 0.00 | 28 | 972.5 |
| 20260903001550 | 101 | 148 | 9.0 | 15.0 | 0.00 | 0.00 | 0.00 | 29 | 972.5 |
| 20260903001051 | 101 | 152 | 10.0 | 15.0 | 0.00 | 0.00 | 0.00 | 29 | 972.6 |
| 20260903000552 | 101 | 159 | 8.0 | 15.0 | 0.00 | 0.00 | 0.00 | 29 | 972.7 |
| 20260903000050 | 101 | 159 | 8.0 | 15.0 | 0.00 | 0.00 | 0.00 | 29 | 972.7 |
| 20260902235551 | 101 | 180 | 6.0 | 12.0 | 0.00 | 0.00 | 0.00 | 30 | 972.6 |
| 20260902235050 | 101 | 178 | 5.0 | 12.0 | 0.00 | 0.00 | 0.00 | 30 | 972.7 |
| 20260902234551 | 101 | 171 | 6.0 | 13.0 | 0.00 | 0.00 | 0.00 | 30 | 972.9 |
| 20260902234051 | 100 | 122 | 4.0 | 15.0 | 0.00 | 0.00 | 0.00 | 29 | 972.9 |
| 20260902233551 | 100 | 109 | 10.0 | 15.0 | 0.00 | 0.00 | 0.00 | 30 | 972.9 |
| 20260902233056 | 101 | 113 | 10.0 | 15.0 | 0.00 | 0.00 | 0.00 | 30 | 973.0 |
| 20260902232551 | 100 | 98 | 11.0 | 15.0 | 0.00 | 0.00 | 0.00 | 30 | 973.0 |
| 20260902232050 | 100 | 107 | 7.0 | 15.0 | 0.00 | 0.00 | 0.00 | 30 | 973.0 |
| 20260902231603 | 101 | 134 | 10.0 | 18.0 | 0.00 | 0.00 | 0.00 | 30 | 973.1 |
| 20260902231051 | 101 | 140 | 10.0 | 15.0 | 0.00 | 0.00 | 0.00 | 30 | 973.0 |
| 20260902230550 | 100 | 122 | 7.0 | 17.0 | 0.00 | 0.00 | 0.00 | 30 | 973.2 |
| 20260902230051 | 100 | 131 | 7.0 | 18.0 | 0.00 | 0.00 | 0.00 | 30 | 973.3 |
| 20260902225551 | 100 | 92 | 12.0 | 18.0 | 0.00 | 0.00 | 0.00 | 31 | 973.4 |
| 20260902225051 | 100 | 156 | 6.0 | 26.0 | 0.00 | 0.00 | 0.00 | 31 | 973.4 |
| 20260902224559 | 100 | 360 | 8.0 | 26.0 | 0.00 | 0.00 | 0.00 | 30 | 973.5 |
| 20260902224050 | 100 | 157 | 12.0 | 18.0 | 0.00 | 0.00 | 0.00 | 30 | 973.5 |
| 20260902223551 | 100 | 360 | 10.0 | 18.0 | 0.00 | 0.00 | 0.00 | 31 | 973.6 |
| 20260902223051 | 100 | 360 | 6.0 | 19.0 | 0.00 | 0.00 | 0.00 | 32 | 973.8 |
| 20260902222550 | 100 | 140 | 9.0 | 13.0 | 0.00 | 0.00 | 0.00 | 31 | 973.7 |
| 20260902222050 | 100 | 138 | 4.0 | 10.0 | 0.00 | 0.00 | 0.00 | 31 | 973.8 |
| 20260902221551 | 100 | 360 | 2.0 | 15.0 | 0.00 | 0.00 | 0.00 | 32 | 973.8 |
| 20260902221050 | 100 | 360 | 5.0 | 17.0 | 0.00 | 0.00 | 0.00 | 32 | 973.9 |
| 20260902220551 | 100 | 360 | 11.0 | 17.0 | 0.00 | 0.00 | 0.00 | 31 | 974.0 |
| 20260902220052 | 100 | 360 | 10.0 | 16.0 | 0.00 | 0.00 | 0.00 | 31 | 974.1 |
| 20260902215550 | 100 | 360 | 11.0 | 18.0 | 0.00 | 0.00 | 0.00 | 31 | 974.1 |
| 20260902215050 | 100 | 360 | 11.0 | 18.0 | 0.00 | 0.00 | 0.00 | 31 | 974.2 |
| 20260902214550 | 100 | 360 | 8.0 | 15.0 | 0.00 | 0.00 | 0.00 | 31 | 974.2 |
| 20260902214053 | 100 | 360 | 6.0 | 17.0 | 0.00 | 0.00 | 0.00 | 31 | 974.4 |
| 20260902213550 | 99 | 360 | 10.0 | 17.0 | 0.00 | 0.00 | 0.00 | 31 | 974.4 |
| 20260902213055 | 100 | 121 | 10.0 | 16.0 | 0.00 | 0.00 | 0.00 | 30 | 974.4 |
| 20260902212550 | 100 | 121 | 8.0 | 16.0 | 0.00 | 0.00 | 0.00 | 30 | 974.4 |
| 20260902212051 | 99 | 360 | 2.0 | 15.0 | 0.00 | 0.00 | 0.00 | 31 | 974.4 |
| 20260902211555 | 99 | 360 | 6.0 | 16.0 | 0.00 | 0.00 | 0.00 | 31 | 974.5 |
| 20260902211050 | 100 | 360 | 8.0 | 16.0 | 0.00 | 0.00 | 0.00 | 30 | 974.7 |
| 20260902210550 | 100 | 111 | 8.0 | 13.0 | 0.00 | 0.00 | 0.00 | 30 | 974.6 |
| 20260902210051 | 100 | 360 | 2.0 | 17.0 | 0.00 | 0.00 | 0.00 | 30 | 974.7 |
| 20260902205550 | 99 | 119 | 8.0 | 18.0 | 0.00 | 0.00 | 0.00 | 31 | 974.7 |
| 20260902205050 | 99 | 115 | 10.0 | 18.0 | 0.00 | 0.00 | 0.00 | 30 | 974.9 |
| 20260902204551 | 100 | 360 | 9.0 | 17.0 | 0.00 | 0.00 | 0.00 | 30 | 974.9 |
| 20260902204050 | 100 | 360 | 6.0 | 17.0 | 0.00 | 0.00 | 0.00 | 29 | 975.0 |
| 20260902203550 | 100 | 360 | 6.0 | 15.0 | 0.00 | 0.00 | 0.00 | 29 | 975.1 |
| 20260902203052 | 100 | 360 | 9.0 | 15.0 | 0.00 | 0.00 | 0.00 | 29 | 975.1 |
| 20260902202554 | 99 | 360 | 8.0 | 14.0 | 0.00 | 0.00 | 0.00 | 30 | 975.2 |
| 20260902202052 | 99 | 360 | 3.0 | 17.0 | 0.00 | 0.00 | 0.00 | 29 | 975.4 |
| 20260902201551 | 99 | 360 | 8.0 | 17.0 | 0.00 | 0.00 | 0.00 | 29 | 975.4 |
| 20260902201050 | 100 | 360 | 8.0 | 12.0 | 0.00 | 0.00 | 0.00 | 30 | 975.6 |
| 20260902200550 | 99 | 360 | 1.0 | 13.0 | 0.00 | 0.00 | 0.00 | 30 | 975.6 |
| 20260902200050 | 99 | 360 | 6.0 | 15.0 | 0.00 | 0.00 | 0.00 | 30 | 975.7 |
| 20260902195551 | 99 | 360 | 6.0 | 15.0 | 0.00 | 0.00 | 0.00 | 30 | 975.8 |
| 20260902195050 | 99 | 360 | 6.0 | 12.0 | 0.00 | 0.00 | 0.00 | 29 | 975.9 |
| 20260902194558 | 98 | 360 | 5.0 | 11.0 | 0.00 | 0.00 | 0.00 | 30 | 976.1 |
| 20260902194051 | 98 | 360 | 5.0 | 16.0 | 0.00 | 0.00 | 0.00 | 30 | 976.2 |
| 20260902193555 | 98 | 360 | 10.0 | 16.0 | 0.00 | 0.00 | 0.00 | 30 | 976.3 |
| 20260902193051 | 98 | 360 | 8.0 | 14.0 | 0.00 | 0.00 | 0.00 | 30 | 976.3 |
| 20260902192550 | 99 | 96 | 8.0 | 12.0 | 0.00 | 0.00 | 0.00 | 30 | 976.4 |
| 20260902192050 | 98 | 360 | 6.0 | 11.0 | 0.00 | 0.00 | 0.00 | 30 | 976.5 |
| 20260902191551 | 98 | 137 | 7.0 | 12.0 | 0.00 | 0.00 | 0.00 | 30 | 976.4 |
| 20260902191050 | 98 | 144 | 8.0 | 12.0 | 0.00 | 0.00 | 0.00 | 30 | 976.6 |
| 20260902190551 | 97 | 146 | 0.0 | 16.0 | 0.00 | 0.00 | 0.00 | 32 | 976.7 |
| 20260902190050 | 97 | 154 | 8.0 | 16.0 | 0.00 | 0.00 | 0.00 | 33 | 976.8 |
| 20260902185551 | 97 | 152 | 8.0 | 13.0 | 0.00 | 0.00 | 0.00 | 32 | 976.9 |
| 20260902185051 | 97 | 360 | 4.0 | 14.0 | 0.00 | 0.00 | 0.00 | 32 | 976.9 |
| 20260902184558 | 97 | 360 | 4.0 | 14.0 | 0.00 | 0.00 | 0.00 | 32 | 977.0 |
| 20260902184050 | 97 | 50 | 6.0 | 13.0 | 0.00 | 0.00 | 0.00 | 33 | 977.0 |
| 20260902183550 | 96 | 360 | 4.0 | 11.0 | 0.00 | 0.00 | 0.00 | 34 | 977.1 |
| 20260902183051 | 96 | 360 | 8.0 | 14.0 | 0.00 | 0.00 | 0.00 | 34 | 977.1 |
| 20260902182550 | 96 | 360 | 8.0 | 16.0 | 0.00 | 0.00 | 0.00 | 34 | 977.2 |
| 20260902182050 | 95 | 360 | 7.0 | 19.0 | 0.00 | 0.00 | 0.00 | 34 | 977.4 |
| 20260902181550 | 95 | 360 | 9.0 | 19.0 | 0.00 | 0.00 | 0.00 | 35 | 977.3 |
| 20260902181050 | 95 | 360 | 9.0 | 15.0 | 0.00 | 0.00 | 0.00 | 35 | 977.2 |
| 20260902180551 | 95 | 360 | 9.0 | 16.0 | 0.00 | 0.00 | 0.00 | 35 | 977.3 |
| 20260902180117 | 95 | 360 | 11.0 | 16.0 | 0.00 | 0.00 | 0.00 | 35 | 977.5 |
| 20260902175551 | 95 | 360 | 9.0 | 16.0 | 0.00 | 0.00 | 0.00 | 34 | 977.5 |
| 20260902175052 | 95 | 360 | 8.0 | 12.0 | 0.00 | 0.00 | 0.00 | 35 | 977.4 |
| 20260902174550 | 94 | 360 | 7.0 | 12.0 | 0.00 | 0.00 | 0.00 | 36 | 977.5 |
| 20260902174055 | 94 | 360 | 6.0 | 14.0 | 0.00 | 0.00 | 0.00 | 36 | 977.6 |
| 20260902173552 | 94 | 360 | 7.0 | 15.0 | 0.00 | 0.00 | 0.00 | 37 | 977.7 |
| 20260902173050 | 94 | 360 | 8.0 | 15.0 | 0.00 | 0.00 | 0.00 | 37 | 977.5 |
| 20260902172552 | 94 | 360 | 3.0 | 12.0 | 0.00 | 0.00 | 0.00 | 38 | 977.6 |
| 20260902172051 | 94 | 360 | 6.0 | 13.0 | 0.00 | 0.00 | 0.00 | 38 | 977.8 |
| 20260902171550 | 94 | 360 | 7.0 | 13.0 | 0.00 | 0.00 | 0.00 | 38 | 977.8 |
| 20260902171052 | 93 | 21 | 3.0 | 13.0 | 0.00 | 0.00 | 0.00 | 38 | 977.6 |
| 20260902170550 | 93 | 360 | 3.0 | 11.0 | 0.00 | 0.00 | 0.00 | 38 | 977.7 |
| 20260902170050 | 93 | 13 | 6.0 | 11.0 | 0.00 | 0.00 | 0.00 | 38 | 977.6 |
| 20260902165550 | 93 | 12 | 5.0 | 12.0 | 0.00 | 0.00 | 0.00 | 38 | 977.8 |
| 20260902165051 | 94 | 11 | 7.0 | 12.0 | 0.00 | 0.00 | 0.00 | 39 | 977.8 |
| 20260902164552 | 94 | 11 | 1.0 | 6.0 | 0.00 | 0.00 | 0.00 | 38 | 977.8 |
| 20260902164050 | 94 | 360 | 0.0 | 5.0 | 0.00 | 0.00 | 0.00 | 38 | 977.9 |
| 20260902163550 | 93 | 360 | 2.0 | 4.0 | 0.00 | 0.00 | 0.00 | 39 | 977.8 |
| 20260902163058 | 93 | 360 | 1.0 | 10.0 | 0.00 | 0.00 | 0.00 | 41 | 977.8 |
| 20260902162550 | 94 | 28 | 2.0 | 10.0 | 0.00 | 0.00 | 0.00 | 41 | 977.7 |
| 20260902162050 | 94 | 311 | 4.0 | 9.0 | 0.00 | 0.00 | 0.00 | 40 | 977.7 |
| 20260902161554 | 94 | 10 | 3.0 | 7.0 | 0.00 | 0.00 | 0.00 | 39 | 977.5 |
| 20260902161051 | 94 | 117 | 3.0 | 6.0 | 0.00 | 0.00 | 0.00 | 39 | 977.6 |
| 20260902160550 | 94 | 115 | 2.0 | 4.0 | 0.00 | 0.00 | 0.00 | 42 | 977.6 |
| 20260902160056 | 93 | 10 | 1.0 | 4.0 | 0.00 | 0.00 | 0.00 | 43 | 977.7 |
| 20260902155551 | 93 | 268 | 1.0 | 4.0 | 0.00 | 0.00 | 0.00 | 44 | 977.6 |
| 20260902155051 | 92 | 21 | 0.0 | 8.0 | 0.00 | 0.00 | 0.00 | 44 | 977.6 |
| 20260902154554 | 92 | 267 | 5.0 | 8.0 | 0.00 | 0.00 | 0.00 | 45 | 977.6 |
| 20260902154050 | 92 | 298 | 2.0 | 5.0 | 0.00 | 0.00 | 0.00 | 45 | 977.5 |
| 20260902153550 | 91 | 298 | 2.0 | 5.0 | 0.00 | 0.00 | 0.00 | 45 | 977.7 |
| 20260902153050 | 91 | 299 | 2.0 | 4.0 | 0.00 | 0.00 | 0.00 | 46 | 977.6 |
| 20260902152550 | 90 | 298 | 0.0 | 3.0 | 0.00 | 0.00 | 0.00 | 47 | 977.7 |
| 20260902152050 | 90 | 360 | 0.0 | 3.0 | 0.00 | 0.00 | 0.00 | 49 | 977.6 |
| 20260902151550 | 89 | 360 | 1.0 | 4.0 | 0.00 | 0.00 | 0.00 | 49 | 977.5 |
| 20260902151050 | 89 | 360 | 2.0 | 4.0 | 0.00 | 0.00 | 0.00 | 50 | 977.4 |
| 20260902150550 | 88 | 360 | 2.0 | 4.0 | 0.00 | 0.00 | 0.00 | 51 | 977.5 |
| 20260902150050 | 88 | 360 | 1.0 | 4.0 | 0.00 | 0.00 | 0.00 | 52 | 977.4 |
| 20260902145551 | 88 | 360 | 3.0 | 4.0 | 0.00 | 0.00 | 0.00 | 52 | 977.4 |
| 20260902145050 | 88 | 360 | 3.0 | 5.0 | 0.00 | 0.00 | 0.00 | 52 | 977.4 |
| 20260902144551 | 88 | 360 | 3.0 | 5.0 | 0.00 | 0.00 | 0.00 | 51 | 977.4 |
| 20260902144050 | 88 | 360 | 0.0 | 5.0 | 0.00 | 0.00 | 0.00 | 51 | 977.3 |
| 20260902143550 | 88 | 360 | 2.0 | 5.0 | 0.00 | 0.00 | 0.00 | 50 | 977.3 |
| 20260902143050 | 88 | 360 | 2.0 | 5.0 | 0.00 | 0.00 | 0.00 | 50 | 977.2 |
| 20260902142550 | 89 | 360 | 2.0 | 4.0 | 0.00 | 0.00 | 0.00 | 49 | 977.3 |
| 20260902142051 | 89 | 360 | 0.0 | 4.0 | 0.00 | 0.00 | 0.00 | 50 | 977.1 |
| 20260902141550 | 89 | 360 | 1.0 | 4.0 | 0.00 | 0.00 | 0.00 | 49 | 977.1 |
| 20260902141050 | 89 | 360 | 0.0 | 4.0 | 0.00 | 0.00 | 0.00 | 49 | 977.0 |
| 20260902140550 | 88 | 360 | 0.0 | 5.0 | 0.00 | 0.00 | 0.00 | 48 | 976.9 |
| 20260902140053 | 88 | 360 | 1.0 | 4.0 | 0.00 | 0.00 | 0.00 | 48 | 977.0 |
| 20260902135550 | 88 | 9 | 1.0 | 3.0 | 0.00 | 0.00 | 0.00 | 49 | 976.9 |
| 20260902135050 | 88 | 9 | 0.0 | 4.0 | 0.00 | 0.00 | 0.00 | 49 | 976.9 |
| 20260902134551 | 87 | 9 | 1.0 | 5.0 | 0.00 | 0.00 | 0.00 | 49 | 976.8 |
| 20260902134051 | 87 | 9 | 3.0 | 5.0 | 0.00 | 0.00 | 0.00 | 50 | 976.6 |
| 20260902133550 | 87 | 9 | 2.0 | 4.0 | 0.00 | 0.00 | 0.00 | 50 | 976.6 |
| 20260902133051 | 87 | 9 | 2.0 | 4.0 | 0.00 | 0.00 | 0.00 | 50 | 976.8 |
| 20260902132551 | 87 | 9 | 2.0 | 5.0 | 0.00 | 0.00 | 0.00 | 50 | 976.6 |
| 20260902132050 | 87 | 9 | 2.0 | 5.0 | 0.00 | 0.00 | 0.00 | 49 | 976.6 |
| 20260902131550 | 87 | 9 | 0.0 | 6.0 | 0.00 | 0.00 | 0.00 | 49 | 976.3 |
| 20260902131050 | 88 | 9 | 2.0 | 6.0 | 0.00 | 0.00 | 0.00 | 50 | 976.5 |
| 20260902130555 | 88 | 10 | 3.0 | 8.0 | 0.00 | 0.00 | 0.00 | 50 | 976.4 |
| 20260902130057 | 88 | 9 | 4.0 | 9.0 | 0.00 | 0.00 | 0.00 | 49 | 976.3 |
| 20260902125552 | 88 | 11 | 5.0 | 9.0 | 0.00 | 0.00 | 0.00 | 48 | 976.3 |
| 20260902125050 | 88 | 10 | 3.0 | 8.0 | 0.00 | 0.00 | 0.00 | 47 | 976.1 |
| 20260902124550 | 88 | 10 | 3.0 | 8.0 | 0.00 | 0.00 | 0.00 | 47 | 976.2 |
| 20260902124050 | 88 | 10 | 4.0 | 6.0 | 0.00 | 0.00 | 0.00 | 46 | 976.2 |